Change the Weather History Date:

Wednesday, April 23, 2014

  Actual Average Record
Temperature  
Mean Temperature 73 °F -  
Max Temperature 89 °F 87 °F 96 °F (2008)
Min Temperature 57 °F 54 °F 33 °F (2011)
Cooling Degree Days 8    
Growing Degree Days 23 (Base 50)    
Moisture  
Dew Point 40 °F    
Average Humidity 36    
Maximum Humidity 77    
Minimum Humidity 13    
Precipitation  
Precipitation 0.00 in - - ()
Sea Level Pressure  
Sea Level Pressure 29.98 in    
Wind  
Wind Speed 5 mph ()    
Max Wind Speed 13 mph    
Max Gust Speed -    
Visibility 8.6 miles    
Events      
Averages and records for this station are not official NWS values.
T = Trace of Precipitation, MM = Missing Value Source: Averaged Metar Reports

Daily Weather History Graph

Daily Weather History Graph

Search for Another Location

Airport or City:

Trip Planner

Search our weather history database for the weather conditions in past years. The results will help you decide how hot, cold, wet, or windy it might be!

Date:

Astronomy

Apr. 23, 2014 Rise Set
Actual Time 7:20 AM CDT 8:07 PM CDT
Civil Twilight 6:57 AM CDT 8:30 PM CDT
Nautical Twilight 6:31 AM CDT 8:57 PM CDT
Astronomical Twilight 6:03 AM CDT 9:25 PM CDT
Moon 3:08 AM CDT (4/23) 3:01 PM CDT (4/23)
Length of Visible Light 13h 32m
Length of Day
12h 46m
Waning Crescent, 34% of the Moon is Illuminated
Apr 23
Waning Crescent
Apr 29
New
May 6
First Quarter
May 14
Full
May 21
Last Quarter

Hourly Weather History & Observations

Time (CDT) Temp. Dew Point Humidity Pressure Visibility Wind Dir Wind Speed Gust Speed Precip Events Conditions
12:45 AM 69.8 °F 42.8 °F 38% 29.70 in 8.0 mi ENE 10.4 mph - N/A   Scattered Clouds
3:59 AM 62.6 °F 51.8 °F 68% 29.58 in 8.0 mi SE 11.5 mph - N/A   Partly Cloudy
4:55 AM 59.0 °F 50.0 °F 72% 30.18 in 8.0 mi Calm Calm - N/A   Partly Cloudy
5:44 AM 59.0 °F 50.0 °F 72% 30.18 in 8.0 mi Calm Calm - N/A   Partly Cloudy
6:49 AM 57.2 °F 50.0 °F 77% 29.74 in 8.0 mi Calm Calm - N/A   Partly Cloudy
7:41 AM 57.2 °F 50.0 °F 77% 30.21 in 8.0 mi Calm Calm - N/A   Partly Cloudy
8:43 AM 64.4 °F 51.8 °F 64% 30.24 in 8.0 mi Calm Calm - N/A   Clear
9:43 AM 69.8 °F 48.2 °F 46% 29.80 in 8.0 mi Calm Calm - N/A   Clear
10:40 AM 75.2 °F 46.4 °F 36% 30.24 in 8.0 mi South 9.2 mph - N/A   Clear
11:40 AM 78.8 °F 44.6 °F 30% 30.24 in 8.0 mi Calm Calm - N/A   Clear
12:45 PM 82.4 °F 46.4 °F 28% 29.68 in 8.0 mi South 8.1 mph - N/A   Partly Cloudy
1:42 PM 84.2 °F 35.6 °F 18% 30.18 in 10.0 mi WNW 2.3 mph - N/A   Scattered Clouds
2:55 PM 89.6 °F 33.8 °F 14% 30.12 in 10.0 mi West 11.5 mph - N/A   Scattered Clouds
3:44 PM 82.4 °F 33.8 °F 17% 29.63 in 10.0 mi Calm Calm - N/A   Scattered Clouds
4:53 PM 89.6 °F 32.0 °F 13% 30.06 in 10.0 mi West 11.5 mph - N/A   Scattered Clouds
5:55 PM 89.6 °F 32.0 °F 13% 30.03 in 10.0 mi WSW 11.5 mph - N/A   Scattered Clouds
6:51 PM 87.8 °F 32.0 °F 14% 29.58 in 10.0 mi WSW 12.7 mph - N/A   Scattered Clouds
7:52 PM 82.4 °F 28.4 °F 14% 30.06 in 10.0 mi WSW 11.5 mph - N/A   Scattered Clouds
8:45 PM 75.2 °F 28.4 °F 18% 30.09 in 8.0 mi SW 5.8 mph - N/A   Scattered Clouds
9:44 PM 71.6 °F 28.4 °F 20% 29.69 in 8.0 mi West 4.6 mph - N/A   Clear
10:47 PM 69.8 °F 30.2 °F 23% 30.12 in 8.0 mi NW 6.9 mph - N/A   Clear
11:41 PM 68.0 °F 30.2 °F 24% 30.15 in 8.0 mi West 3.5 mph - N/A   Clear